GW1267 Weather Reports


time (UTC)temp
F
wind
direction
speed
knots
gust
knots
rain 1hr
in
rain 24hr
in
rain mn
in
humidity
%
barometer
mb
20260506151050 54 257 0.9 6.1 0.00 0.00 0.00 63 1020.4
20260506150550 54 233 1.7 7.8 0.00 0.00 0.00 64 1020.3
20260506150056 54 311 3.5 7.8 0.00 0.00 0.00 65 1020.4
20260506145548 54 0 0.0 5.2 0.00 0.00 0.00 64 1020.3
20260506145047 54 0 0.0 5.2 0.00 0.00 0.00 64 1020.1
20260506144603 54 0 0.0 0.0 0.00 0.00 0.00 62 1019.8
20260506144047 54 0 0.0 2.6 0.00 0.00 0.00 61 1019.5
20260506143549 54 0 0.0 3.5 0.00 0.00 0.00 60 1019.4
20260506143100 54 0 0.9 3.5 0.00 0.00 0.00 61 1019.4
20260506142551 54 0 0.0 0.0 0.00 0.00 0.00 61 1019.3
20260506142049 54 0 0.0 2.6 0.00 0.00 0.00 60 1019.3
20260506141554 54 0 0.0 2.6 0.00 0.00 0.00 61 1019.4
20260506141048 54 0 0.9 2.6 0.00 0.00 0.00 61 1019.4
20260506140652 54 0 0.0 0.0 0.00 0.00 0.00 60 1019.3
20260506140550 54 0 0.0 0.0 0.00 0.00 0.00 60 1019.3
20260506135548 54 0 0.0 3.5 0.00 0.00 0.00 60 1019.4
20260506135049 53 0 0.0 3.5 0.00 0.00 0.00 60 1019.3
20260506134553 53 195 1.7 3.5 0.00 0.00 0.00 61 1019.2
20260506134050 54 195 0.9 3.5 0.00 0.00 0.00 61 1019.0
20260506133549 54 195 0.9 3.5 0.00 0.00 0.00 62 1019.1
20260506133056 54 194 0.9 2.6 0.00 0.00 0.00 62 1019.0
20260506132548 54 0 0.0 2.6 0.00 0.00 0.00 62 1019.0
20260506132047 54 195 0.0 0.0 0.00 0.00 0.00 63 1019.1
20260506131557 54 0 0.0 0.0 0.00 0.00 0.00 62 1019.1
20260506131050 54 0 0.0 2.6 0.00 0.00 0.00 62 1019.1
20260506130550 54 0 0.0 3.5 0.00 0.00 0.00 63 1018.9
20260506130133 54 0 0.9 5.2 0.00 0.00 0.00 63 1018.9
20260506125548 54 194 0.9 5.2 0.00 0.00 0.00 64 1018.9
20260506125048 54 196 2.6 5.2 0.00 0.00 0.00 64 1018.9
20260506124555 55 198 0.0 4.3 0.00 0.00 0.00 64 1019.0
20260506124051 55 0 0.0 2.6 0.00 0.00 0.00 64 1019.0
20260506123548 55 0 0.0 2.6 0.00 0.00 0.00 65 1019.0
20260506123054 55 0 0.0 0.0 0.00 0.00 0.00 65 1018.9
20260506122548 55 0 0.0 0.0 0.00 0.00 0.00 65 1019.0
20260506122049 55 0 0.0 0.0 0.00 0.00 0.00 65 1019.0
20260506121557 55 0 0.0 0.0 0.00 0.00 0.00 65 1018.9
20260506121048 55 0 0.0 0.0 0.00 0.00 0.00 66 1018.8
20260506120550 55 0 0.0 0.0 0.00 0.00 0.00 66 1018.7
20260506120100 55 0 0.0 0.0 0.00 0.00 0.00 66 1018.8
20260506115549 55 0 0.0 0.0 0.00 0.00 0.00 65 1018.8
20260506115047 55 0 0.0 0.0 0.00 0.00 0.00 65 1018.6
20260506114550 55 0 0.0 0.0 0.00 0.00 0.00 65 1018.6
20260506114047 55 0 0.0 0.0 0.00 0.00 0.00 64 1018.6
20260506113547 55 0 0.0 0.0 0.00 0.00 0.00 63 1018.5
20260506113058 55 0 0.0 0.0 0.00 0.00 0.00 63 1018.4
20260506112547 56 0 0.0 0.0 0.00 0.00 0.00 63 1018.4
20260506112048 56 0 0.0 0.0 0.00 0.00 0.00 63 1018.4
20260506111554 56 0 0.0 0.0 0.00 0.00 0.00 64 1018.3
20260506111047 56 0 0.0 0.0 0.00 0.00 0.00 64 1018.3
20260506110548 56 0 0.0 0.0 0.00 0.00 0.00 64 1018.2
20260506105704 56 0 0.0 0.0 0.00 0.00 0.00 63 1018.0
20260506105049 56 0 0.0 0.0 0.00 0.00 0.00 63 1017.9
20260506104610 56 0 0.0 0.0 0.00 0.00 0.00 63 1017.8
20260506104048 56 0 0.0 0.0 0.00 0.00 0.00 64 1017.6
20260506103548 56 0 0.0 0.0 0.00 0.00 0.00 64 1017.6
20260506103054 56 0 0.0 0.0 0.00 0.00 0.00 65 1017.5
20260506102548 56 0 0.0 0.0 0.00 0.00 0.00 65 1017.5
20260506102047 57 0 0.0 0.0 0.00 0.00 0.00 66 1017.5
20260506101559 57 0 0.0 0.0 0.00 0.00 0.00 66 1017.5
20260506101048 57 0 0.0 0.0 0.00 0.00 0.00 66 1017.5
20260506100550 57 0 0.0 0.0 0.00 0.00 0.00 66 1017.4
20260506100052 57 0 0.0 0.0 0.00 0.00 0.00 66 1017.4
20260506095552 57 0 0.0 0.0 0.00 0.00 0.00 66 1017.4
20260506095048 57 0 0.0 0.0 0.00 0.00 0.00 66 1017.5
20260506094558 57 0 0.0 0.0 0.00 0.00 0.00 66 1017.4
20260506094047 57 0 0.0 0.0 0.00 0.00 0.00 66 1017.3
20260506093548 57 0 0.0 0.0 0.00 0.00 0.00 66 1017.3
20260506093100 57 0 0.0 0.0 0.00 0.00 0.00 66 1017.2
20260506092557 57 0 0.0 0.0 0.00 0.00 0.00 66 1017.3
20260506092048 57 0 0.0 0.0 0.00 0.00 0.00 66 1017.2
20260506091551 57 0 0.0 0.0 0.00 0.00 0.00 66 1017.0
20260506091054 57 0 0.0 0.0 0.00 0.00 0.00 66 1017.1
20260506090555 57 0 0.0 0.0 0.00 0.00 0.00 66 1017.1
20260506090056 57 0 0.0 0.0 0.00 0.00 0.00 66 1017.1
20260506085551 57 0 0.0 0.0 0.00 0.00 0.00 66 1017.1
20260506085048 57 0 0.0 0.0 0.00 0.00 0.00 66 1017.0
20260506084554 57 0 0.0 0.0 0.00 0.00 0.00 66 1017.0
20260506084052 57 0 0.0 0.0 0.00 0.00 0.00 66 1017.1
20260506083549 57 0 0.0 0.0 0.00 0.00 0.00 66 1017.1
20260506083056 57 0 0.0 0.0 0.00 0.00 0.00 66 1017.1
20260506082558 57 0 0.0 0.0 0.00 0.00 0.00 67 1017.1
20260506082055 57 0 0.0 0.0 0.00 0.00 0.00 68 1017.1
20260506081553 58 0 0.0 0.0 0.00 0.00 0.00 68 1017.1
20260506081052 58 0 0.0 0.0 0.00 0.00 0.00 69 1017.0
20260506080552 58 0 0.0 0.0 0.00 0.00 0.00 69 1017.0
20260506073100 58 0 0.0 0.0 0.00 0.00 0.00 71 1016.8
20260506072551 58 0 0.0 0.0 0.00 0.00 0.00 71 1016.8
20260506072054 58 0 0.0 0.0 0.00 0.00 0.00 71 1016.7
20260506071607 58 0 0.0 0.0 0.00 0.00 0.00 71 1016.7
20260506071054 58 0 0.0 0.0 0.00 0.00 0.00 71 1016.7
20260506070551 58 0 0.0 0.0 0.00 0.00 0.00 71 1016.7
20260506062052 58 0 0.0 0.0 0.00 0.00 0.00 71 1016.6
20260506061554 58 0 0.0 0.0 0.00 0.00 0.00 71 1016.4
20260506061050 58 0 0.0 0.0 0.00 0.00 0.00 71 1016.4
20260506060554 58 0 0.0 0.0 0.00 0.00 0.00 71 1016.4
20260506051053 59 0 0.0 0.0 0.00 0.00 0.00 72 1016.2
20260506050551 59 0 0.0 0.0 0.00 0.00 0.00 72 1016.2
20260506045051 59 0 0.0 0.0 0.00 0.00 0.00 72 1016.1
20260506044559 59 0 0.0 0.0 0.00 0.00 0.00 72 1016.0
20260506044049 59 0 0.0 0.0 0.00 0.00 0.00 72 1016.0
20260506043553 59 0 0.0 0.0 0.00 0.00 0.00 72 1016.0
20260506043053 59 0 0.0 0.0 0.00 0.00 0.00 72 1015.9
20260506042552 59 0 0.0 0.0 0.00 0.00 0.00 72 1015.9
20260506042052 59 0 0.0 0.0 0.00 0.00 0.00 72 1015.8
20260506041604 59 0 0.0 0.0 0.00 0.00 0.00 72 1015.8
20260506041052 59 0 0.0 0.0 0.00 0.00 0.00 72 1015.7
20260506040551 59 0 0.0 0.0 0.00 0.00 0.00 72 1015.7
20260506040054 59 0 0.0 0.0 0.00 0.00 0.00 72 1015.6
20260506035551 59 0 0.0 0.0 0.00 0.00 0.00 71 1015.6
20260506035049 59 0 0.0 0.0 0.00 0.00 0.00 72 1015.6
20260506034555 59 0 0.0 0.0 0.00 0.00 0.00 72 1015.5
20260506034050 59 0 0.0 0.0 0.00 0.00 0.00 72 1015.5
20260506033554 59 0 0.0 0.0 0.00 0.00 0.00 72 1015.4
20260506033054 59 0 0.0 0.0 0.00 0.00 0.00 72 1015.3
20260506032551 59 0 0.0 0.0 0.00 0.00 0.00 72 1015.3
20260506032053 60 0 0.0 0.0 0.00 0.00 0.00 72 1015.3
20260506031556 60 0 0.0 0.0 0.00 0.00 0.00 73 1015.1
20260506031054 60 0 0.0 0.0 0.00 0.00 0.00 73 1015.2
20260506030552 60 0 0.0 0.0 0.00 0.00 0.00 72 1015.1
20260506030052 60 0 0.0 0.0 0.00 0.00 0.00 72 1015.1
20260506025549 60 0 0.0 0.0 0.00 0.00 0.00 72 1015.0
20260506025048 61 0 0.0 0.0 0.00 0.00 0.00 72 1015.0
20260506024549 61 0 0.0 0.0 0.00 0.00 0.00 72 1015.0
20260506024048 61 0 0.0 0.0 0.00 0.00 0.00 72 1015.0
20260506023551 61 0 0.0 0.0 0.00 0.00 0.00 72 1015.1
20260506023057 61 0 0.0 0.0 0.00 0.00 0.00 71 1015.1
20260506022548 61 0 0.0 0.0 0.00 0.00 0.00 71 1015.0
20260506022048 62 0 0.0 0.0 0.00 0.00 0.00 71 1015.1
20260506021558 62 0 0.0 0.0 0.00 0.00 0.00 70 1015.0
20260506021050 62 0 0.0 0.0 0.00 0.00 0.00 70 1014.9
20260506020547 62 0 0.0 0.0 0.00 0.00 0.00 70 1015.0
20260506020057 62 0 0.0 0.0 0.00 0.00 0.00 70 1015.1
20260506015552 61 0 0.0 3.5 0.00 0.00 0.00 71 1015.0
20260506015047 61 0 0.0 3.5 0.00 0.00 0.00 71 1015.0
20260506014600 62 343 0.0 0.9 0.00 0.00 0.00 70 1015.0
20260506014046 62 0 0.0 0.0 0.00 0.00 0.00 71 1015.0
20260506013547 61 0 0.0 0.0 0.00 0.00 0.00 71 1015.0
20260506013053 61 0 0.0 0.0 0.00 0.00 0.00 71 1015.0
20260506012547 61 0 0.0 0.0 0.00 0.00 0.00 71 1015.0
20260506012048 61 0 0.0 0.0 0.00 0.00 0.00 71 1015.0
20260506011553 61 0 0.0 0.0 0.00 0.00 0.00 71 1015.1
20260506011047 61 0 0.0 0.0 0.00 0.00 0.00 71 1015.1
20260506010550 61 0 0.0 0.0 0.00 0.00 0.00 71 1015.0
20260506010055 61 0 0.0 0.0 0.00 0.00 0.00 71 1015.0
20260506005547 61 0 0.0 0.0 0.00 0.00 0.00 71 1015.0
20260506005048 61 0 0.0 0.0 0.00 0.00 0.00 71 1015.0
20260506004557 61 0 0.0 0.0 0.00 0.00 0.00 71 1015.1
20260506004047 61 0 0.0 0.0 0.00 0.00 0.00 72 1015.0
20260506003547 61 0 0.0 0.0 0.00 0.00 0.00 72 1015.0
20260506003054 61 0 0.0 0.0 0.00 0.00 0.00 71 1015.1
20260506002547 61 0 0.0 0.0 0.00 0.00 0.00 71 1015.0
20260506002048 61 0 0.0 2.6 0.00 0.00 0.00 71 1015.1
20260506001612 61 0 0.0 2.6 0.00 0.00 0.00 71 1015.1
20260506001048 61 0 0.0 2.6 0.00 0.00 0.00 71 1015.1
20260506000548 61 0 0.0 3.5 0.00 0.00 0.00 72 1015.1
20260506000106 60 0 0.0 4.3 0.00 0.00 0.00 71 1015.2
20260505235550 61 222 0.0 4.3 0.00 0.00 0.00 71 1015.2
20260505235048 61 0 0.0 4.3 0.00 0.00 0.00 71 1015.3
20260505234553 61 0 0.0 2.6 0.00 0.00 0.00 71 1015.3
20260505234049 61 0 0.0 4.3 0.00 0.00 0.00 71 1015.3
20260505233549 61 0 0.0 4.3 0.00 0.00 0.00 71 1015.4
20260505233056 61 254 0.9 4.3 0.00 0.00 0.00 71 1015.4
20260505232547 61 0 0.0 0.0 0.00 0.00 0.00 71 1015.3
20260505232047 61 0 0.0 0.0 0.00 0.00 0.00 71 1015.3
20260505231554 61 0 0.0 0.0 0.00 0.00 0.00 71 1015.4
20260505231050 61 0 0.0 0.0 0.00 0.00 0.00 70 1015.3
20260505230547 61 0 0.0 0.0 0.00 0.00 0.00 71 1015.4
20260505230110 61 0 0.0 0.0 0.00 0.00 0.00 71 1015.4
20260505225548 61 0 0.0 0.0 0.00 0.00 0.00 71 1015.4
20260505225051 61 0 0.0 0.0 0.00 0.00 0.00 71 1015.5
20260505224553 61 0 0.0 0.0 0.00 0.00 0.00 71 1015.5
20260505224049 61 0 0.0 0.0 0.00 0.00 0.00 71 1015.6
20260505223549 61 0 0.0 0.0 0.00 0.00 0.00 71 1015.5
20260505223100 61 0 0.0 1.7 0.00 0.00 0.00 71 1015.5
20260505222549 61 0 0.0 3.5 0.00 0.00 0.00 71 1015.6
20260505222047 61 0 0.9 3.5 0.00 0.00 0.00 71 1015.6
20260505221559 61 0 0.9 5.2 0.00 0.00 0.00 71 1015.7
20260505221049 61 0 0.0 5.2 0.00 0.00 0.00 71 1015.7
20260505220549 61 288 0.9 4.3 0.00 0.00 0.00 71 1015.7
20260505220100 60 0 0.0 5.2 0.00 0.00 0.00 72 1015.7
20260505215549 60 25 0.0 5.2 0.00 0.00 0.00 71 1015.7
20260505215049 61 0 0.9 5.2 0.00 0.00 0.00 71 1015.9
20260505214606 60 0 0.9 4.3 0.00 0.00 0.00 71 1015.8
20260505214049 60 351 0.9 4.3 0.00 0.00 0.00 71 1015.8
20260505213549 60 0 0.0 0.0 0.00 0.00 0.00 71 1015.8
20260505213100 60 0 0.0 0.0 0.00 0.00 0.00 71 1015.8
20260505212549 60 0 0.0 3.5 0.00 0.00 0.00 72 1015.9
20260505212049 60 0 0.0 6.1 0.00 0.00 0.00 72 1015.9
20260505211607 59 0 2.6 6.1 0.00 0.00 0.00 72 1015.9
20260505211050 60 251 0.0 4.3 0.00 0.00 0.00 72 1015.8
20260505210547 60 0 1.7 4.3 0.00 0.00 0.00 71 1015.9
20260505210106 60 0 0.0 3.5 0.00 0.00 0.00 72 1015.9
20260505205551 60 0 0.0 3.5 0.00 0.00 0.00 72 1015.9
20260505205047 60 0 0.0 5.2 0.00 0.00 0.00 72 1016.0
20260505204550 59 0 0.0 5.2 0.00 0.00 0.00 72 1015.9
20260505204049 60 334 2.6 4.3 0.00 0.00 0.00 71 1016.0
20260505203550 60 342 1.7 4.3 0.00 0.00 0.00 71 1016.0
20260505203054 60 0 0.0 0.0 0.00 0.00 0.00 72 1016.0
20260505202550 60 0 0.0 0.0 0.00 0.00 0.00 71 1016.0
20260505202054 60 0 0.0 0.0 0.00 0.00 0.00 72 1016.0
20260505201605 60 0 0.0 0.0 0.00 0.00 0.00 72 1016.0
20260505201047 60 0 0.0 0.0 0.00 0.00 0.00 72 1016.1
20260505200549 59 0 0.0 0.0 0.00 0.00 0.00 72 1016.2
20260505200051 59 0 0.0 4.3 0.00 0.00 0.00 72 1016.2
20260505195548 59 0 0.0 4.3 0.00 0.00 0.00 72 1016.2
20260505195054 59 360 0.0 4.3 0.00 0.00 0.00 72 1016.2
20260505194555 59 0 0.0 3.5 0.00 0.00 0.00 72 1016.1
20260505194048 59 0 0.0 3.5 0.00 0.00 0.00 72 1016.2
20260505193552 59 0 0.0 0.0 0.00 0.00 0.00 72 1016.1
20260505193051 59 0 0.0 0.0 0.00 0.00 0.00 72 1016.1
20260505192553 59 0 0.0 0.0 0.00 0.00 0.00 72 1016.1
20260505192049 58 0 0.0 0.0 0.00 0.00 0.00 72 1016.2
20260505191557 58 0 0.0 0.0 0.00 0.00 0.00 72 1016.3
20260505191050 58 0 0.0 0.0 0.00 0.00 0.00 72 1016.2
20260505190548 57 0 0.0 0.0 0.00 0.00 0.00 72 1016.2
20260505190111 57 0 0.0 0.0 0.00 0.00 0.00 72 1016.2
20260505185549 57 0 0.0 0.0 0.00 0.00 0.00 72 1016.3
20260505185049 57 0 0.0 0.0 0.00 0.00 0.00 72 1016.3
20260505184605 57 0 0.0 0.0 0.00 0.00 0.00 72 1016.2
20260505184050 57 0 0.0 0.0 0.00 0.00 0.00 72 1016.2
20260505183550 57 0 0.0 0.0 0.00 0.00 0.00 71 1016.2
20260505183055 56 0 0.0 0.0 0.00 0.00 0.00 72 1016.2
20260505182548 56 0 0.0 5.2 0.00 0.00 0.00 72 1016.3
20260505182052 56 0 0.0 5.2 0.00 0.00 0.00 72 1016.3
20260505181557 56 188 0.9 5.2 0.00 0.00 0.00 72 1016.1
20260505181052 56 0 0.0 3.5 0.00 0.00 0.00 71 1016.2
20260505180548 56 0 0.0 4.3 0.00 0.00 0.00 70 1016.2
20260505180055 55 0 0.9 5.2 0.00 0.00 0.00 70 1016.2
20260505175549 55 0 0.9 5.2 0.00 0.00 0.00 69 1016.2
20260505175049 55 192 0.0 5.2 0.00 0.00 0.00 69 1016.2
20260505174552 55 245 0.0 5.2 0.00 0.00 0.00 68 1016.2
20260505174049 55 203 0.9 5.2 0.00 0.00 0.00 68 1016.2
20260505173549 55 0 0.0 4.3 0.00 0.00 0.00 67 1016.1
20260505173053 55 0 0.0 4.3 0.00 0.00 0.00 65 1016.1
20260505172548 54 215 0.0 4.3 0.00 0.00 0.00 63 1016.1
20260505172048 54 0 0.0 3.5 0.00 0.00 0.00 62 1016.1
20260505171554 54 0 0.0 3.5 0.00 0.00 0.00 61 1016.1
20260505171051 54 190 0.0 3.5 0.00 0.00 0.00 59 1016.0
20260505170554 53 0 0.9 3.5 0.00 0.00 0.00 58 1016.1
20260505170059 53 0 0.0 3.5 0.00 0.00 0.00 57 1016.0
20260505165548 53 0 0.0 5.2 0.00 0.00 0.00 55 1016.0
20260505165048 53 0 0.0 5.2 0.00 0.00 0.00 52 1016.0
20260505164552 53 198 0.9 4.3 0.00 0.00 0.00 47 1015.9
20260505164048 53 0 0.0 0.0 0.00 0.00 0.00 46 1015.9
20260505163553 53 0 0.0 2.6 0.00 0.00 0.00 46 1015.9
20260505163059 53 0 0.0 3.5 0.00 0.00 0.00 45 1016.0
20260505162548 52 230 0.0 3.5 0.00 0.00 0.00 44 1015.9
20260505162048 52 0 0.0 5.2 0.00 0.00 0.00 43 1015.9
20260505161552 52 232 0.0 5.2 0.00 0.00 0.00 42 1015.8
20260505161050 52 0 1.7 5.2 0.00 0.00 0.00 43 1015.8
20260505160552 52 0 0.0 3.5 0.00 0.00 0.00 42 1015.9
20260505153107 52 0 0.0 2.6 0.00 0.00 0.00 42 1015.8
20260505152549 52 250 0.0 1.7 0.00 0.00 0.00 42 1015.7
20260505152050 52 0 0.0 0.0 0.00 0.00 0.00 42 1015.7
20260505151554 52 0 0.0 3.5 0.00 0.00 0.00 42 1015.7